Location: Shannon
(40.5500°S, 175.4167°E)
Time: 09:07:06
(UTC+00:00)

Meteor 2-13 Rocket - Pass Details

Date: 17 November 2025
Orbit: 936 x 956 km, 82.5° (Epoch: 14 December)

Event Time Altitude Azimuth Distance (km) Brightness Sun altitude
Rises 12:54:52 0° 191° (S) 3,657 8.5 -29.1°
Reaches altitude 10° 12:57:24 10° 193° (SSW) 2,702 7.6 -29.0°
Enters shadow 13:03:27 70° 268° (W) 1,014 4.4 -28.7°
